TimeMST,TemperatureF,Dew PointF,Humidity,Sea Level PressureIn,VisibilityMPH,Wind Direction,Wind SpeedMPH,Gust SpeedMPH,PrecipitationIn,Events,Conditions,WindDirDegrees,DateUTC
12:15 AM,44.6,35.6,71,30.06,10.0,South,11.5,-,N/A,,Partly Cloudy,180,2012-11-09 07:15:00
12:35 AM,44.6,35.6,71,30.06,10.0,South,10.4,-,N/A,,Partly Cloudy,190,2012-11-09 07:35:00
12:55 AM,46.4,35.6,66,30.05,10.0,South,10.4,-,N/A,,Scattered Clouds,180,2012-11-09 07:55:00
1:15 AM,46.4,35.6,66,30.05,10.0,South,10.4,-,N/A,,Scattered Clouds,180,2012-11-09 08:15:00
1:35 AM,46.4,35.6,66,30.04,10.0,South,9.2,17.3,N/A,,Partly Cloudy,170,2012-11-09 08:35:00
1:55 AM,46.4,35.6,66,30.03,10.0,South,10.4,-,N/A,,Clear,170,2012-11-09 08:55:00
2:15 AM,46.4,35.6,66,30.02,10.0,South,13.8,-,N/A,,Partly Cloudy,180,2012-11-09 09:15:00
2:35 AM,48.2,35.6,62,30.02,10.0,South,12.7,19.6,N/A,,Mostly Cloudy,180,2012-11-09 09:35:00
2:55 AM,48.2,35.6,62,30.02,10.0,South,11.5,-,N/A,,Mostly Cloudy,180,2012-11-09 09:55:00
3:15 AM,48.2,35.6,62,30.01,10.0,South,11.5,-,N/A,,Overcast,180,2012-11-09 10:15:00
3:35 AM,48.2,35.6,62,30.00,10.0,South,10.4,19.6,N/A,,Mostly Cloudy,180,2012-11-09 10:35:00
3:55 AM,48.2,35.6,62,29.99,10.0,SSW,16.1,21.9,N/A,,Mostly Cloudy,200,2012-11-09 10:55:00
4:15 AM,48.2,35.6,62,29.99,10.0,SSW,21.9,29.9,N/A,,Mostly Cloudy,200,2012-11-09 11:15:00
4:35 AM,48.2,37.4,66,29.99,8.0,SSW,16.1,25.3,N/A,Rain,Light Rain,200,2012-11-09 11:35:00
4:55 AM,46.4,37.4,71,29.99,10.0,South,20.7,25.3,N/A,,Mostly Cloudy,190,2012-11-09 11:55:00
5:15 AM,46.4,39.2,76,29.99,5.0,SSW,15.0,26.5,N/A,Rain-Thunderstorm,Light Rain,200,2012-11-09 12:15:00
5:35 AM,44.6,41.0,87,29.99,3.0,SW,17.3,26.5,N/A,Rain,Light Rain,220,2012-11-09 12:35:00
5:55 AM,44.6,41.0,87,29.98,10.0,SW,11.5,18.4,N/A,,Overcast,220,2012-11-09 12:55:00
6:15 AM,44.6,41.0,87,29.99,5.0,SW,11.5,19.6,N/A,Rain,Light Rain,220,2012-11-09 13:15:00
6:35 AM,44.6,41.0,87,29.97,3.0,South,17.3,31.1,0.02,Rain,Light Rain,180,2012-11-09 13:35:00
6:55 AM,44.6,41.0,87,29.97,2.5,South,25.3,34.5,0.04,,Overcast,190,2012-11-09 13:55:00
7:15 AM,44.6,41.0,87,29.97,5.0,South,18.4,26.5,N/A,Rain,Light Rain,190,2012-11-09 14:15:00
7:35 AM,44.6,41.0,87,29.95,5.0,South,25.3,35.7,N/A,Rain,Light Rain,180,2012-11-09 14:35:00
7:55 AM,44.6,41.0,87,29.96,2.5,South,23.0,35.7,0.01,Rain,Light Rain,180,2012-11-09 14:55:00
8:15 AM,44.6,41.0,87,29.96,2.0,South,19.6,32.2,0.01,Rain,Light Rain,190,2012-11-09 15:15:00
8:35 AM,44.6,41.0,87,29.97,2.0,SSW,26.5,40.3,0.02,Rain,Light Rain,200,2012-11-09 15:35:00
8:55 AM,46.4,42.8,87,29.96,4.0,South,23.0,34.5,0.03,,Overcast,190,2012-11-09 15:55:00
9:15 AM,46.4,44.6,93,29.95,2.5,South,32.2,41.4,0.02,,Overcast,190,2012-11-09 16:15:00
9:35 AM,46.4,44.6,93,29.94,3.0,SSW,28.8,38.0,0.03,Rain,Light Rain,200,2012-11-09 16:35:00
9:55 AM,48.2,44.6,87,29.94,10.0,South,35.7,43.7,0.04,,Mostly Cloudy,190,2012-11-09 16:55:00
10:15 AM,48.2,44.6,87,29.95,8.0,SSW,31.1,42.6,N/A,Rain,Light Rain,200,2012-11-09 17:15:00
10:35 AM,48.2,44.6,87,29.95,8.0,SSW,29.9,40.3,N/A,Rain,Light Rain,200,2012-11-09 17:35:00
10:55 AM,48.2,44.6,87,29.95,5.0,South,32.2,43.7,N/A,,Mostly Cloudy,190,2012-11-09 17:55:00
11:15 AM,48.2,44.6,87,29.94,7.0,SSW,31.1,41.4,0.01,Rain,Light Rain,200,2012-11-09 18:15:00
11:35 AM,48.2,44.6,87,29.92,4.0,SSW,34.5,46.0,0.02,Rain,Light Rain,200,2012-11-09 18:35:00
11:55 AM,50.0,44.6,82,29.92,9.0,SSW,34.5,42.6,0.03,Rain,Light Rain,200,2012-11-09 18:55:00
12:15 PM,48.2,44.6,87,29.92,10.0,South,33.4,40.3,N/A,,Scattered Clouds,190,2012-11-09 19:15:00
12:35 PM,48.2,44.6,87,29.91,10.0,SSW,25.3,41.4,N/A,,Mostly Cloudy,200,2012-11-09 19:35:00
12:55 PM,48.2,42.8,82,29.89,5.0,SSW,24.2,35.7,0.01,Rain-Thunderstorm,Light Thunderstorms and Rain,200,2012-11-09 19:55:00
1:15 PM,48.2,44.6,87,29.88,8.0,SSW,27.6,34.5,0.01,Rain,Light Rain,200,2012-11-09 20:15:00
1:35 PM,48.2,44.6,87,29.88,7.0,SSW,33.4,42.6,0.01,Rain,Light Rain,200,2012-11-09 20:35:00
1:55 PM,48.2,44.6,87,29.87,9.0,SSW,24.2,33.4,0.02,Rain-Thunderstorm,Light Rain,210,2012-11-09 20:55:00
2:15 PM,51.8,42.8,71,29.86,10.0,SSW,24.2,34.5,N/A,Thunderstorm,Thunderstorm,210,2012-11-09 21:15:00
2:35 PM,51.8,41.0,67,29.85,10.0,SSW,34.5,43.7,N/A,,Clear,210,2012-11-09 21:35:00
2:55 PM,53.6,39.2,58,29.85,10.0,SSW,29.9,41.4,N/A,,Partly Cloudy,200,2012-11-09 21:55:00
3:15 PM,53.6,39.2,58,29.85,10.0,SSW,28.8,40.3,N/A,,Partly Cloudy,210,2012-11-09 22:15:00
3:35 PM,53.6,37.4,54,29.86,10.0,SSW,26.5,33.4,N/A,,Clear,210,2012-11-09 22:35:00
3:55 PM,51.8,33.8,50,29.85,10.0,SSW,23.0,38.0,N/A,,Clear,210,2012-11-09 22:55:00
4:15 PM,51.8,32.0,47,29.85,10.0,SSW,28.8,41.4,N/A,Thunderstorm,Clear,210,2012-11-09 23:15:00
4:35 PM,51.8,32.0,47,29.85,10.0,SSW,23.0,40.3,N/A,,Clear,210,2012-11-09 23:35:00
4:55 PM,50.0,28.4,43,29.85,10.0,SSW,28.8,39.1,N/A,,Clear,210,2012-11-09 23:55:00
5:15 PM,50.0,30.2,47,29.85,10.0,SSW,26.5,36.8,N/A,,Clear,210,2012-11-10 00:15:00
5:35 PM,48.2,32.0,54,29.85,10.0,SSW,19.6,34.5,N/A,,Clear,210,2012-11-10 00:35:00
5:55 PM,48.2,32.0,54,29.86,10.0,SSW,27.6,34.5,N/A,,Clear,200,2012-11-10 00:55:00
6:15 PM,48.2,32.0,54,29.86,10.0,SSW,25.3,32.2,N/A,,Clear,200,2012-11-10 01:15:00
6:35 PM,48.2,32.0,54,29.86,10.0,SSW,19.6,29.9,N/A,,Clear,200,2012-11-10 01:35:00
6:55 PM,48.2,32.0,54,29.85,10.0,SSW,20.7,27.6,N/A,,Clear,200,2012-11-10 01:55:00
7:15 PM,48.2,32.0,54,29.86,10.0,SSW,18.4,28.8,N/A,,Clear,200,2012-11-10 02:15:00
7:35 PM,46.4,32.0,57,29.85,10.0,SSW,20.7,27.6,N/A,,Scattered Clouds,200,2012-11-10 02:35:00
7:55 PM,46.4,32.0,57,29.85,10.0,South,21.9,32.2,N/A,Rain,Light Rain,190,2012-11-10 02:55:00
8:15 PM,46.4,32.0,57,29.85,10.0,South,26.5,35.7,N/A,,Mostly Cloudy,190,2012-11-10 03:15:00
8:35 PM,46.4,32.0,57,29.85,10.0,SSW,27.6,36.8,N/A,,Mostly Cloudy,200,2012-11-10 03:35:00
8:55 PM,46.4,32.0,57,29.85,10.0,SSW,24.2,33.4,N/A,,Mostly Cloudy,200,2012-11-10 03:55:00
9:15 PM,46.4,32.0,57,29.85,10.0,SSW,23.0,33.4,N/A,,Mostly Cloudy,200,2012-11-10 04:15:00
9:35 PM,44.6,32.0,61,29.86,10.0,SSW,26.5,39.1,N/A,,Mostly Cloudy,200,2012-11-10 04:35:00
9:55 PM,44.6,32.0,61,29.85,10.0,SSW,21.9,39.1,N/A,,Mostly Cloudy,200,2012-11-10 04:55:00
10:15 PM,44.6,32.0,61,29.84,10.0,South,21.9,29.9,N/A,,Mostly Cloudy,190,2012-11-10 05:15:00
10:35 PM,44.6,32.0,61,29.83,10.0,South,28.8,36.8,N/A,,Mostly Cloudy,190,2012-11-10 05:35:00
10:55 PM,44.6,33.8,66,29.82,10.0,South,28.8,38.0,N/A,,Mostly Cloudy,190,2012-11-10 05:55:00
11:15 PM,44.6,33.8,66,29.81,10.0,South,23.0,35.7,N/A,,Mostly Cloudy,190,2012-11-10 06:15:00
11:35 PM,44.6,35.6,71,29.80,10.0,SSW,29.9,39.1,N/A,,Mostly Cloudy,200,2012-11-10 06:35:00
11:55 PM,44.6,35.6,71,29.79,10.0,South,31.1,41.4,N/A,,Overcast,190,2012-11-10 06:55:00